Weather reports worldwide

Advertisment
Aboyne, United Kingdom (3080): temperature & dewpoint: 12.08.2019 23:00:00 - 18.08.2019 23:00:00 (BST)Aboyne, United Kingdom (3080): temperature -20cm & temperature -100cm: 12.08.2019 23:00:00 - 18.08.2019 23:00:00 (BST)Aboyne, United Kingdom (3080): wind speed & gusts: 12.08.2019 23:00:00 - 18.08.2019 23:00:00 (BST)Aboyne, United Kingdom (3080): wind direction: 12.08.2019 23:00:00 - 18.08.2019 23:00:00 (BST)Aboyne, United Kingdom (3080): reduced air pressure: 12.08.2019 23:00:00 - 18.08.2019 23:00:00 (BST)Aboyne, United Kingdom (3080): visibility: 12.08.2019 23:00:00 - 18.08.2019 23:00:00 (BST)Aboyne, United Kingdom (3080): precipitation: 12.08.2019 23:00:00 - 18.08.2019 23:00:00 (BST)
Date & Time tt [°C] td [°C] tt -20cm [°C] tt -100cm [°C] ff [km/h] ff [kn] fx [km/h] fx [kn] dd ppp [hPa] vv [km] rr [mm]
18.08.2019 23:00:00 12,2 8,7 - - 16 9 - - WNW 995,8 40 0,0
18.08.2019 22:00:00 12,9 8,6 - - 18 10 - - W 995,2 35 0,0
18.08.2019 21:00:00 12,9 8,9 - - 15 8 - - W 994,3 45 0,0
18.08.2019 20:00:00 14,3 9,3 - - 24 13 - - W 993,2 50 0,0
18.08.2019 19:00:00 15,4 10,3 - - 24 13 - - W 991,9 50 0,0
18.08.2019 18:00:00 13,9 10,7 - - 16 9 - - W 991,7 45 0,2
18.08.2019 17:00:00 14,3 11,4 - - 18 10 - - W 991,1 45 0,6
18.08.2019 16:00:00 16,2 10,0 - - 29 16 46 25 SW 990,6 30 0,0
18.08.2019 15:00:00 17,4 11,8 - - 22 12 52 28 SW 989,9 22 0,0
18.08.2019 14:00:00 17,5 9,9 - - 31 17 52 28 WSW 989,3 45 0,0
18.08.2019 13:00:00 16,0 9,7 - - 26 14 46 25 SSW 989,1 30 0,0
18.08.2019 12:00:00 15,7 11,0 - - 18 10 - - SSW 989,5 26 0,0
18.08.2019 11:00:00 15,6 9,6 - - 15 8 - - SW 989,7 45 0,0
18.08.2019 10:00:00 13,4 10,1 15,9 14,0 13 7 - - SSW 990,1 40 0,0
18.08.2019 09:00:00 12,8 9,9 - - 9 5 - - W 990,1 30 0,0
18.08.2019 08:00:00 12,7 9,8 - - 9 5 - - S 990,3 40 0,0
18.08.2019 07:00:00 12,4 9,6 - - 13 7 - - SSW 990,4 30 0,0
18.08.2019 06:00:00 12,1 9,4 - - 9 5 - - SSW 990,7 15 0,0
18.08.2019 05:00:00 12,3 9,1 - - 11 6 - - SSW 990,7 30 0,0
18.08.2019 04:00:00 12,6 8,6 - - 13 7 - - WSW 990,8 40 0,0
18.08.2019 03:00:00 12,5 8,8 - - 9 5 - - WSW 991,5 29 0,0
18.08.2019 02:00:00 12,2 9,4 - - 8 4 - - SSE 992,2 35 0,0
18.08.2019 01:00:00 13,1 8,5 - - 5 3 - - S 992,4 40 0,0
18.08.2019 00:00:00 12,5 9,3 - - 5 3 - - SE 992,8 9 0,2
17.08.2019 23:00:00 12,5 8,4 - - 4 2 - - S 993,2 20 0,0
17.08.2019 22:00:00 12,1 7,1 - - 8 4 - - ESE 993,3 30 0,0
17.08.2019 21:00:00 13,1 6,6 - - 11 6 - - SW 993,4 40 0,0
17.08.2019 20:00:00 14,6 7,0 - - 15 8 - - SW 992,8 50 0,0
17.08.2019 19:00:00 15,2 8,0 - - 13 7 - - SSW 992,9 35 0,0
17.08.2019 18:00:00 15,3 7,9 - - 11 6 48 26 SW 993,1 40 0,0
17.08.2019 17:00:00 15,9 5,6 - - 26 14 46 25 WSW 993,0 45 0,0
17.08.2019 16:00:00 17,4 7,0 - - 24 13 48 26 WSW 992,9 22 0,0
17.08.2019 15:00:00 17,9 8,2 - - 24 13 - - WSW 992,7 50 0,0
17.08.2019 14:00:00 16,1 7,6 - - 26 14 - - WSW 992,9 40 0,0
17.08.2019 13:00:00 12,6 8,1 - - 22 12 52 28 W 993,0 24 0,0
17.08.2019 12:00:00 15,1 8,2 - - 24 13 - - WSW 992,2 30 0,0
17.08.2019 11:00:00 16,2 7,0 - - 24 13 46 25 WSW 991,6 40 0,0
17.08.2019 10:00:00 15,5 7,9 16,0 14,0 24 13 - - WSW 991,1 30 0,0
17.08.2019 09:00:00 14,4 9,1 - - 18 10 - - W 990,7 23 0,0
17.08.2019 08:00:00 13,0 10,0 - - 4 2 - - NNW 990,7 35 0,0
17.08.2019 07:00:00 10,3 10,1 - - 4 2 - - WNW 990,4 19 0,0
17.08.2019 06:00:00 8,1 7,5 - - 5 3 - - W 989,9 1,2 0,2
17.08.2019 05:00:00 10,4 10,2 - - 4 2 - - NW 989,9 15 0,2
17.08.2019 04:00:00 9,6 9,2 - - 5 3 - - WSW 990,3 13 0,0
17.08.2019 03:00:00 10,5 10,1 - - 4 2 - - ESE 990,6 21 0,0
17.08.2019 02:00:00 10,4 10,0 - - 5 3 - - WNW 990,7 23 0,0
17.08.2019 01:00:00 11,4 10,6 - - 9 5 - - W 990,8 14 0,0
17.08.2019 00:00:00 13,4 12,4 - - 4 2 - - NE 991,4 22 0,0
16.08.2019 23:00:00 14,0 13,0 - - 5 3 - - ESE 992,0 14 0,0
16.08.2019 22:00:00 14,5 11,8 - - 2 1 - - E 992,1 30 0,0
16.08.2019 21:00:00 16,7 12,1 - - 11 6 - - SSW 992,1 40 0,0
16.08.2019 20:00:00 17,6 11,7 - - 11 6 - - SW 992,1 40 0,0
16.08.2019 19:00:00 18,7 11,9 - - 11 6 - - SSW 992,5 45 0,0
16.08.2019 18:00:00 18,6 14,5 - - 11 6 - - SW 992,9 50 0,0
16.08.2019 17:00:00 19,6 14,6 - - 15 8 - - SSW 993,1 45 0,0
16.08.2019 16:00:00 17,2 14,7 - - 15 8 - - SE 994,1 25 0,0
16.08.2019 15:00:00 15,9 13,5 - - 16 9 - - ESE 995,0 10 0,0
16.08.2019 14:00:00 17,1 14,2 - - 28 15 - - SE 995,4 13 0,0
16.08.2019 13:00:00 16,0 13,7 - - 24 13 - - SE 996,4 6 0,2
16.08.2019 12:00:00 14,6 13,3 - - 16 9 - - ESE 997,5 5 0,0
16.08.2019 11:00:00 14,4 12,8 - - 18 10 - - SE 998,5 9 0,8
16.08.2019 10:00:00 14,2 12,8 15,9 14,0 16 9 - - SE 999,4 9 0,2
16.08.2019 09:00:00 14,2 12,2 - - 16 9 - - SSE 1000,8 14 0,4
16.08.2019 08:00:00 14,2 12,6 - - 16 9 - - SE 1001,6 28 0,6
16.08.2019 07:00:00 13,7 11,9 - - 5 3 - - SE 1002,6 21 0,2
16.08.2019 06:00:00 14,6 10,9 - - 9 5 - - S 1003,6 45 0,0
16.08.2019 05:00:00 13,3 11,1 - - 8 4 - - E 1004,3 45 0,0
16.08.2019 04:00:00 12,7 10,4 - - 8 4 - - S 1005,6 50 0,0
16.08.2019 03:00:00 12,6 9,8 - - 13 7 - - SSW 1006,7 28 0,0
16.08.2019 02:00:00 13,1 9,6 - - 11 6 - - WSW 1007,1 40 0,0
16.08.2019 01:00:00 12,7 9,4 - - 9 5 - - SSW 1007,8 45 0,0
16.08.2019 00:00:00 11,1 8,3 - - 2 1 - - NNE 1008,4 40 0,0
15.08.2019 23:00:00 8,8 6,9 - - 2 1 - - NNE 1008,9 45 0,0
15.08.2019 22:00:00 8,6 6,1 - - 2 1 - - W 1009,4 45 0,0
15.08.2019 21:00:00 10,9 6,1 - - 2 1 - - ESE 1009,3 45 0,0
15.08.2019 20:00:00 14,6 6,8 - - 9 5 - - WSW 1008,8 40 0,0
15.08.2019 19:00:00 15,5 8,1 - - 5 3 - - W 1008,4 40 0,0
15.08.2019 18:00:00 16,8 7,3 - - 16 9 - - WNW 1007,9 45 0,0
15.08.2019 17:00:00 16,6 7,1 - - 22 12 - - WNW 1007,5 40 0,0
15.08.2019 16:00:00 16,3 6,6 - - 26 14 - - W 1007,1 50 0,0
15.08.2019 15:00:00 16,3 6,9 - - 29 16 48 26 WNW 1006,7 35 0,0
15.08.2019 14:00:00 16,5 8,5 - - 29 16 - - WNW 1005,9 26 0,0
15.08.2019 13:00:00 14,6 10,0 - - 22 12 - - NW 1005,3 40 0,0
15.08.2019 12:00:00 13,5 10,2 - - 18 10 - - W 1004,6 40 0,0
15.08.2019 11:00:00 13,4 10,7 - - 26 14 50 27 NW 1003,0 45 0,4
15.08.2019 10:00:00 15,5 12,3 16,0 14,2 22 12 - - WNW 1001,3 45 0,0
15.08.2019 09:00:00 15,5 12,7 - - 13 7 - - WNW 1000,5 7 0,0
15.08.2019 08:00:00 13,5 11,9 - - 8 4 - - WNW 999,8 40 0,0
15.08.2019 07:00:00 11,7 11,2 - - 9 5 - - WNW 999,2 40 0,0
15.08.2019 06:00:00 11,4 11,2 - - 5 3 - - WNW 998,8 0,1 0,0
15.08.2019 05:00:00 12,4 12,2 - - 8 4 - - W 998,6 7 0,0
15.08.2019 04:00:00 12,5 12,2 - - 4 2 - - N 998,6 4,9 0,0
15.08.2019 03:00:00 12,9 12,5 - - 4 2 - - E 998,8 5 0,0
15.08.2019 02:00:00 13,3 12,7 - - 8 4 - - E 999,3 19 0,2
15.08.2019 01:00:00 13,1 12,5 - - 9 5 - - E 999,9 11 1,6
15.08.2019 00:00:00 13,5 12,1 - - 5 3 - - E 1000,5 27 0,0
14.08.2019 23:00:00 13,4 12,0 - - 5 3 - - ENE 1001,0 30 0,0
14.08.2019 22:00:00 13,3 11,9 - - 15 8 - - E 1001,6 24 0,0
14.08.2019 21:00:00 13,0 11,9 - - 9 5 - - E 1002,6 30 0,0
14.08.2019 20:00:00 13,2 11,7 - - 11 6 - - E 1003,1 35 0,2
14.08.2019 19:00:00 14,2 10,9 - - 15 8 - - ESE 1003,7 35 0,0
14.08.2019 18:00:00 15,3 10,6 - - 18 10 - - ESE 1004,2 45 0,0
14.08.2019 17:00:00 16,1 9,8 - - 15 8 - - SSE 1004,7 25 0,0
14.08.2019 16:00:00 16,7 8,3 - - 16 9 - - SE 1005,5 45 0,0
14.08.2019 15:00:00 16,5 9,5 - - 18 10 - - SSE 1006,1 40 0,0
14.08.2019 14:00:00 15,1 9,9 - - 11 6 - - SE 1007,2 40 0,0
14.08.2019 13:00:00 13,8 9,9 - - 4 2 - - E 1007,9 35 0,0
14.08.2019 12:00:00 13,1 9,1 - - 8 4 - - SE 1008,5 17 0,2
14.08.2019 11:00:00 11,8 8,4 - - 8 4 - - E 1008,9 35 0,0
14.08.2019 10:00:00 10,7 8,5 16,0 14,2 4 2 - - ESE 1009,3 35 0,0
14.08.2019 09:00:00 8,7 7,6 - - 4 2 - - WNW 1009,9 35 0,0
14.08.2019 08:00:00 7,4 7,3 - - 2 1 - - W 1010,2 29 0,0
14.08.2019 07:00:00 5,8 5,8 - - 5 3 - - WSW 1010,9 25 0,0
14.08.2019 06:00:00 4,5 4,4 - - 5 3 - - NW 1011,2 35 0,0
14.08.2019 05:00:00 3,7 3,6 - - 2 1 - - SW 1011,6 19 0,0
14.08.2019 04:00:00 3,5 3,4 - - 4 2 - - WSW 1012,1 8 0,0
14.08.2019 03:00:00 3,6 3,3 - - 2 1 - - NE 1012,5 10 0,0
14.08.2019 02:00:00 4,1 4,0 - - 4 2 - - NNW 1012,5 30 0,0
14.08.2019 01:00:00 3,8 3,5 - - 2 1 - - WSW 1012,8 21 0,0
14.08.2019 00:00:00 4,0 3,5 - - 5 3 - - W 1012,5 20 0,0
13.08.2019 23:00:00 4,4 3,7 - - 2 1 - - E 1012,6 24 0,0
13.08.2019 22:00:00 5,9 5,0 - - 2 1 - - NE 1012,5 35 0,0
13.08.2019 21:00:00 8,3 6,1 - - 4 2 - - ESE 1012,3 45 0,0
13.08.2019 20:00:00 12,1 6,8 - - 11 6 - - NW 1011,9 45 0,0
13.08.2019 19:00:00 14,6 8,2 - - 9 5 - - WNW 1011,3 40 0,0
13.08.2019 18:00:00 14,0 11,2 - - 8 4 - - E 1011,3 50 0,0
13.08.2019 17:00:00 13,9 10,7 - - 4 2 - - E 1011,4 40 2,2
13.08.2019 16:00:00 13,4 9,6 - - 4 2 - - NE 1011,3 45 0,8
13.08.2019 15:00:00 14,1 8,7 - - 4 2 - - E 1011,2 50 0,2
13.08.2019 14:00:00 16,1 7,1 - - 11 6 - - NNW 1011,0 35 0,0
13.08.2019 13:00:00 16,6 6,7 - - 13 7 - - W 1011,1 50 0,0
13.08.2019 12:00:00 14,5 6,9 - - 11 6 - - WSW 1011,5 45 0,0
13.08.2019 11:00:00 15,8 7,8 - - 5 3 - - WNW 1011,5 35 0,0
13.08.2019 10:00:00 13,9 7,5 16,2 14,4 15 8 - - W 1011,7 50 0,0
13.08.2019 09:00:00 11,9 7,9 - - 15 8 - - W 1012,1 45 0,0
13.08.2019 08:00:00 10,0 7,5 - - 11 6 - - WNW 1012,0 40 0,0
13.08.2019 07:00:00 7,6 6,7 - - 8 4 - - NW 1012,0 27 0,0
13.08.2019 06:00:00 6,9 5,9 - - 9 5 - - WSW 1012,1 50 0,0
13.08.2019 05:00:00 7,1 6,5 - - 9 5 - - W 1012,1 40 0,0
13.08.2019 04:00:00 7,3 6,8 - - 11 6 - - WNW 1012,0 35 0,0
13.08.2019 03:00:00 6,5 6,1 - - 5 3 - - W 1012,2 29 0,0
13.08.2019 02:00:00 7,2 6,3 - - 5 3 - - W 1012,1 30 0,0
13.08.2019 01:00:00 8,4 7,7 - - 4 2 - - S 1012,1 25 0,0
13.08.2019 00:00:00 8,8 8,5 - - 4 2 - - W 1012,3 30 0,0
12.08.2019 23:00:00 8,5 8,0 - - 4 2 - - NNW 1012,1 40 0,0

tt = temperature
td = dewpoint
tt -20cm = temperature -20cm
tt -100cm = temperature -100cm
ff = wind speed
fx = gusts
dd = wind direction
ppp = reduced air pressure
vv = visibility
rr = precipitation

Next stations